Date String (YYYY-MM-DD hh:mm:ss) UTC,Instrument flags,absolute air pressure of the measurement (hPa),sample flow rate (lpm),inlet stack bypass flow (lpm),air temperature of the measurement (°C),ambient temperature measured by the external sensor (°C),aerosol sample conditioner tube jacket temperature (°C),OPC LED temperature (°C),internal box temperature (°C),relative humidity of the measurement (%),span deviation,mass concentration of particles derived from Lorenz-Mie calculation of OPC scattering (μg/m³),mass concentration of particles derived from Lorenz-Mie calculation of OPC scattering (μg/m³),mass concentration of particles derived from Lorenz-Mie calculation of OPC scattering (μg/m³)
DateTimeUTC,F1_M11,P_M11,Q1_M11,Q2_M11,T1_M11,T2_M11,T3_M11,T4_M11,T5_M11,U1_M11,ZSPAN_M11,X0_M11,X2_M11,X1_M11
2024-05-02 01:00:00,SystemResetWarning,0822.0,5.01,000.00,025.2,024.6,000.0,033.7,027.1,017.6,0000.0,0004.20,0002.25,0001.21
2024-05-02 01:01:00,SystemResetWarning,0822.0,5.01,000.00,025.3,024.6,000.0,033.7,027.1,017.7,0000.0,0005.02,0002.22,0001.18
2024-05-02 01:02:00,SystemResetWarning,0822.0,4.98,000.00,025.3,024.6,000.0,033.7,027.1,017.7,0000.0,0005.08,0002.22,0001.16
2024-05-02 01:03:00,SystemResetWarning,0821.9,5.00,000.00,025.3,024.6,000.0,033.7,027.1,017.3,0000.0,0005.28,0002.29,0001.14
2024-05-02 01:04:00,SystemResetWarning,0822.0,5.00,000.00,025.3,024.6,000.0,033.7,027.1,017.4,0000.0,0005.54,0002.33,0001.14
2024-05-02 01:05:00,SystemResetWarning,0821.7,5.01,000.00,025.3,024.6,000.0,033.7,027.1,017.1,0000.0,0005.46,0002.28,0001.14
2024-05-02 01:06:00,SystemResetWarning,0821.9,5.01,000.00,025.3,024.6,000.0,033.7,027.1,016.8,0000.0,0005.46,0002.27,0001.16
2024-05-02 01:07:00,SystemResetWarning,0821.9,4.99,000.00,025.3,024.6,000.0,033.7,027.1,016.9,0000.0,0005.80,0002.39,0001.18
2024-05-02 01:08:00,SystemResetWarning,0822.1,4.99,000.00,025.3,024.6,000.0,033.7,027.1,016.8,0000.0,0006.08,0002.46,0001.19
2024-05-02 01:09:00,SystemResetWarning,0821.7,5.00,000.00,025.3,024.6,000.0,033.7,027.1,016.8,0000.0,0006.29,0002.53,0001.22
2024-05-02 01:10:00,SystemResetWarning,0821.6,5.01,000.00,025.3,024.6,000.0,033.7,027.1,016.8,0000.0,0006.36,0002.54,0001.23
2024-05-02 01:11:00,SystemResetWarning,0822.0,5.00,000.00,025.3,024.6,000.0,033.7,027.1,016.8,0000.0,0006.81,0002.64,0001.25
2024-05-02 01:12:00,SystemResetWarning,0821.9,5.00,000.00,025.3,024.6,000.0,033.7,027.1,016.9,0000.0,0005.91,0002.68,0001.29
2024-05-02 01:13:00,SystemResetWarning,0822.0,4.98,000.00,025.3,024.6,000.0,033.7,027.1,016.9,0000.0,0005.99,0002.70,0001.32
2024-05-02 01:14:00,SystemResetWarning,0821.9,4.99,000.00,025.3,024.6,000.0,033.7,027.1,016.8,0000.0,0006.18,0002.69,0001.36
2024-05-02 01:15:00,SystemResetWarning,0821.6,5.01,000.00,025.3,024.6,000.0,033.8,027.1,016.8,0000.0,0006.24,0002.77,0001.40
2024-05-02 01:16:00,SystemResetWarning,0821.9,5.01,000.00,025.3,024.6,000.0,033.8,027.1,016.8,0000.0,0006.64,0002.88,0001.44
2024-05-02 01:17:00,SystemResetWarning,0821.9,5.00,000.00,025.3,024.6,000.0,033.8,027.1,016.9,0000.0,0006.81,0002.91,0001.46
2024-05-02 01:18:00,SystemResetWarning,0822.1,5.00,000.00,025.3,024.6,000.0,033.8,027.1,017.0,0000.0,0007.50,0002.86,0001.49
2024-05-02 01:19:00,SystemResetWarning,0821.7,4.99,000.00,025.3,024.6,000.0,033.8,027.2,017.0,0000.0,0007.65,0002.88,0001.53
2024-05-02 01:20:00,SystemResetWarning,0822.0,5.00,000.00,025.3,024.6,000.0,033.8,027.2,017.1,0000.0,0007.67,0002.88,0001.55
2024-05-02 01:21:00,SystemResetWarning,0822.0,5.01,000.00,025.3,024.6,000.0,033.8,027.1,017.1,0000.0,0007.68,0002.95,0001.60
2024-05-02 01:22:00,SystemResetWarning,0822.0,5.01,000.00,025.3,024.6,000.0,033.8,027.1,017.0,0000.0,0007.76,0003.05,0001.64
2024-05-02 01:23:00,SystemResetWarning,0822.0,4.99,000.00,025.3,024.6,000.0,033.8,027.1,016.8,0000.0,0008.14,0003.12,0001.67
2024-05-02 01:24:00,SystemResetWarning,0821.9,4.99,000.00,025.3,024.6,000.0,033.8,027.1,016.7,0000.0,0008.32,0003.14,0001.69
2024-05-02 01:25:00,SystemResetWarning,0821.9,5.00,000.00,025.3,024.6,000.0,033.8,027.1,016.7,0000.0,0008.13,0003.12,0001.69
2024-05-02 01:26:00,SystemResetWarning,0822.0,5.00,000.00,025.3,024.6,000.0,033.8,027.1,016.6,0000.0,0008.73,0003.15,0001.71
2024-05-02 01:27:00,SystemResetWarning,0821.7,5.00,000.00,025.3,024.6,000.0,033.8,027.1,016.7,0000.0,0009.01,0003.13,0001.71
2024-05-02 01:28:00,SystemResetWarning,0821.4,5.00,000.00,025.3,024.6,000.0,033.8,027.2,016.7,0000.0,0008.95,0003.13,0001.72
2024-05-02 01:29:00,SystemResetWarning,0821.3,5.01,000.00,025.3,024.6,000.0,033.8,027.2,017.6,0000.0,0008.38,0003.15,0001.71
2024-05-02 01:30:00,SystemResetWarning,0821.3,5.00,000.00,025.3,024.6,000.0,033.8,027.1,018.3,0000.0,0008.26,0003.13,0001.67
2024-05-02 01:31:00,SystemResetWarning,0821.3,5.00,000.00,025.3,024.6,000.0,033.8,027.1,019.5,0000.0,0008.68,0003.10,0001.63
2024-05-02 01:32:00,SystemResetWarning,0821.3,4.99,000.00,025.3,024.6,000.0,033.8,027.1,020.2,0000.0,0008.71,0002.96,0001.56
2024-05-02 01:33:00,SystemResetWarning,0821.4,4.99,000.00,025.3,024.5,000.0,033.8,027.0,020.5,0000.0,0008.96,0002.75,0001.48
2024-05-02 01:34:00,SystemResetWarning,0821.4,5.00,000.00,025.3,024.5,000.0,033.8,026.9,020.9,0000.0,0008.59,0002.54,0001.40
2024-05-02 01:35:00,SystemResetWarning,0821.9,5.00,000.00,025.2,024.5,000.0,033.8,026.9,021.1,0000.0,0008.24,0002.41,0001.32
2024-05-02 01:36:00,SystemResetWarning,0821.8,5.01,000.00,025.2,024.5,000.0,033.8,026.9,021.2,0000.0,0008.11,0002.29,0001.25
2024-05-02 01:37:00,SystemResetWarning,0821.6,5.01,000.00,025.2,024.5,000.0,033.8,026.9,020.9,0000.0,0007.32,0002.07,0001.15
2024-05-02 01:38:00,SystemResetWarning,0821.6,5.01,000.00,025.2,024.5,000.0,033.7,026.9,021.1,0000.0,0006.38,0001.98,0001.07
2024-05-02 01:39:00,SystemResetWarning,0821.6,4.98,000.00,025.2,024.5,000.0,033.7,026.9,021.3,0000.0,0006.16,0001.86,0000.99
2024-05-02 01:40:00,SystemResetWarning,0821.6,5.00,000.00,025.2,024.5,000.0,033.7,026.9,021.4,0000.0,0005.70,0001.68,0000.91
2024-05-02 01:41:00,SystemResetWarning,0821.6,5.01,000.00,025.2,024.5,000.0,033.7,026.9,021.3,0000.0,0005.56,0001.60,0000.86
2024-05-02 01:42:00,SystemResetWarning,0821.6,5.01,000.00,025.2,024.5,000.0,033.7,026.9,021.4,0000.0,0004.64,0001.55,0000.84
2024-05-02 01:43:00,SystemResetWarning,0821.6,4.99,000.00,025.2,024.5,000.0,033.7,026.9,021.5,0000.0,0004.48,0001.55,0000.83
2024-05-02 01:44:00,SystemResetWarning,0821.7,4.99,000.00,025.2,024.5,000.0,033.7,026.9,021.6,0000.0,0003.86,0001.54,0000.80
2024-05-02 01:45:00,SystemResetWarning,0821.7,5.01,000.00,025.2,024.5,000.0,033.7,026.9,021.6,0000.0,0003.85,0001.56,0000.79
2024-05-02 01:46:00,SystemResetWarning,0821.9,5.00,000.00,025.2,024.5,000.0,033.7,026.9,021.4,0000.0,0004.79,0001.54,0000.78
2024-05-02 01:47:00,SystemResetWarning,0821.8,5.01,000.00,025.2,024.5,000.0,033.7,026.9,021.3,0000.0,0005.79,0001.56,0000.80
2024-05-02 01:48:00,SystemResetWarning,0821.8,5.00,000.00,025.2,024.5,000.0,033.7,026.9,021.4,0000.0,0006.24,0001.62,0000.83
2024-05-02 01:49:00,SystemResetWarning,0821.8,4.99,000.00,025.2,024.5,000.0,033.7,026.9,021.5,0000.0,0006.34,0001.65,0000.84
2024-05-02 01:50:00,SystemResetWarning,0821.8,4.99,000.00,025.2,024.5,000.0,033.7,026.9,021.6,0000.0,0006.45,0001.64,0000.85
2024-05-02 01:51:00,SystemResetWarning,0821.8,5.01,000.00,025.2,024.5,000.0,033.7,027.0,021.6,0000.0,0006.61,0001.71,0000.87
2024-05-02 01:52:00,SystemResetWarning,0821.8,5.01,000.00,025.2,024.5,000.0,033.7,026.9,021.6,0000.0,0006.52,0001.72,0000.89
2024-05-02 01:53:00,SystemResetWarning,0821.8,5.01,000.00,025.2,024.5,000.0,033.7,026.9,021.7,0000.0,0006.75,0001.75,0000.90
2024-05-02 01:54:00,SystemResetWarning,0821.8,5.01,000.00,025.2,024.5,000.0,033.7,026.9,022.0,0000.0,0006.79,0001.79,0000.91
2024-05-02 01:55:00,SystemResetWarning,0821.8,4.99,000.00,025.2,024.5,000.0,033.7,026.9,022.2,0000.0,0007.07,0001.87,0000.95
2024-05-02 01:56:00,SystemResetWarning,0821.8,5.00,000.00,025.2,024.5,000.0,033.7,026.9,022.5,0000.0,0007.02,0001.92,0000.97
2024-05-02 01:57:00,SystemResetWarning,0821.8,5.00,000.00,025.1,024.5,000.0,033.6,026.9,022.8,0000.0,0006.70,0001.95,0001.00
2024-05-02 01:58:00,SystemResetWarning,0821.8,5.01,000.00,025.1,024.5,000.0,033.6,026.8,023.1,0000.0,0007.17,0002.04,0001.02
2024-05-02 01:59:00,SystemResetWarning,0821.8,5.00,000.00,025.1,024.4,000.0,033.6,026.9,023.3,0000.0,0007.62,0002.14,0001.03
